User: anonymous   Login
Location: Cerbedi�res
(48.2182°N, 1.4849°W)
Time: 02:59:33
(UTC+00:00)
Language:

GP-B - Orbit

View from above orbital plane
View from above orbital plane
View from above satellite
View from above satellite

Ground track
Ground track

The orbit data is extracted from the following two-line orbital elements,

1 28230U 04014A   21137.37255568  .00000136  00000-0  16258-4 0  9995
2 28230  89.8139  90.9175 0003382  90.5297 269.6313 14.78807965377613
Epoch (UTC): 17 May 2021 08:56:28
Eccentricity: 0.0003382
inclination: 89.8139°
perigee height: 631 km
apogee height: 635 km
right ascension of ascending node: 90.9175°
argument of perigee: 90.5297°
revolutions per day: 14.78807965
mean anomaly at epoch: 269.6313°
orbit number at epoch: 37761

The dashed part of the orbit path shows where the satellite is in the earth's shadow,  

DLR